TimeCST,TemperatureF,Dew PointF,Humidity,Sea Level PressureIn,VisibilityMPH,Wind Direction,Wind SpeedMPH,Gust SpeedMPH,PrecipitationIn,Events,Conditions,WindDirDegrees,DateUTC
12:15 AM,27.5,17.4,66,30.30,10.0,NNW,5.8,-,N/A,,Clear,330,2013-02-20 06:15:00
12:35 AM,26.8,17.2,67,30.29,10.0,NNW,3.5,-,N/A,,Clear,330,2013-02-20 06:35:00
12:55 AM,26.8,16.7,66,30.30,10.0,NNW,5.8,-,N/A,,Clear,330,2013-02-20 06:55:00
1:15 AM,26.8,16.3,65,30.30,10.0,NW,3.5,-,N/A,,Clear,310,2013-02-20 07:15:00
1:35 AM,26.8,16.0,64,30.30,10.0,Calm,Calm,-,N/A,,Clear,0,2013-02-20 07:35:00
1:55 AM,26.2,16.0,65,30.29,10.0,NNW,4.6,-,N/A,,Clear,340,2013-02-20 07:55:00
2:15 AM,26.4,15.1,62,30.29,10.0,NNW,6.9,-,N/A,,Clear,340,2013-02-20 08:15:00
2:35 AM,26.4,14.5,61,30.29,10.0,NNW,4.6,-,N/A,,Clear,330,2013-02-20 08:35:00
2:55 AM,25.7,14.7,63,30.29,10.0,NNW,6.9,-,N/A,,Clear,330,2013-02-20 08:55:00
3:15 AM,25.7,14.5,63,30.29,10.0,NNW,5.8,-,N/A,,Clear,340,2013-02-20 09:15:00
3:35 AM,24.8,14.7,66,30.29,10.0,NNW,3.5,-,N/A,,Clear,340,2013-02-20 09:35:00
3:55 AM,24.6,14.5,66,30.29,10.0,WNW,3.5,-,N/A,,Clear,300,2013-02-20 09:55:00
4:15 AM,24.6,14.2,65,30.30,10.0,NW,3.5,-,N/A,,Clear,320,2013-02-20 10:15:00
4:35 AM,24.3,14.2,65,30.31,10.0,NW,3.5,-,N/A,,Clear,310,2013-02-20 10:35:00
5:15 AM,23.9,15.4,70,30.31,10.0,Calm,Calm,-,N/A,,Clear,0,2013-02-20 11:15:00
5:35 AM,24.3,13.5,63,30.30,10.0,NNW,3.5,-,N/A,,Clear,330,2013-02-20 11:35:00
6:15 AM,24.4,12.9,62,30.31,10.0,Calm,Calm,-,N/A,,Clear,0,2013-02-20 12:15:00
6:35 AM,24.3,13.5,63,30.31,10.0,North,3.5,-,N/A,,Clear,360,2013-02-20 12:35:00
6:55 AM,24.3,13.6,64,30.32,10.0,North,3.5,-,N/A,,Clear,350,2013-02-20 12:55:00
7:15 AM,24.8,13.5,62,30.34,10.0,NNW,9.2,-,N/A,,Clear,340,2013-02-20 13:15:00
7:35 AM,25.2,12.7,59,30.34,10.0,North,5.8,-,N/A,,Clear,350,2013-02-20 13:35:00
7:55 AM,25.7,12.7,58,30.34,10.0,North,6.9,-,N/A,,Clear,360,2013-02-20 13:55:00
8:15 AM,25.7,12.4,57,30.35,10.0,North,5.8,-,N/A,,Clear,360,2013-02-20 14:15:00
8:35 AM,25.9,12.7,58,30.36,10.0,NNW,5.8,-,N/A,,Clear,340,2013-02-20 14:35:00
8:55 AM,26.4,12.6,56,30.37,10.0,North,4.6,-,N/A,,Clear,350,2013-02-20 14:55:00
9:35 AM,26.8,12.7,56,30.38,10.0,North,8.1,-,N/A,,Clear,10,2013-02-20 15:35:00
9:55 AM,27.5,13.5,56,30.38,10.0,North,4.6,-,N/A,,Clear,10,2013-02-20 15:55:00
10:15 AM,27.7,13.1,54,30.37,10.0,North,5.8,-,N/A,,Clear,360,2013-02-20 16:15:00
10:35 AM,28.2,12.9,53,30.38,10.0,NNW,3.5,-,N/A,,Clear,330,2013-02-20 16:35:00
10:55 AM,28.8,13.5,53,30.38,10.0,NW,5.8,-,N/A,,Clear,320,2013-02-20 16:55:00
11:15 AM,28.9,12.6,50,30.37,10.0,North,4.6,-,N/A,,Clear,10,2013-02-20 17:15:00
11:35 AM,29.3,12.7,50,30.35,10.0,NNW,3.5,-,N/A,,Clear,340,2013-02-20 17:35:00
11:55 AM,29.3,12.6,50,30.35,10.0,NNW,4.6,-,N/A,,Clear,340,2013-02-20 17:55:00
12:15 PM,30.2,13.3,49,30.36,10.0,North,4.6,-,N/A,,Clear,360,2013-02-20 18:15:00
12:35 PM,30.4,14.0,51,30.36,10.0,NNW,6.9,-,N/A,,Clear,340,2013-02-20 18:35:00
12:55 PM,30.7,13.5,49,30.36,10.0,North,4.6,-,N/A,,Clear,350,2013-02-20 18:55:00
1:15 PM,30.7,14.0,50,30.35,10.0,Calm,Calm,-,N/A,,Clear,0,2013-02-20 19:15:00
1:35 PM,31.1,14.9,51,30.34,10.0,NW,5.8,-,N/A,,Clear,320,2013-02-20 19:35:00
1:55 PM,31.1,13.8,49,30.34,10.0,North,5.8,-,N/A,,Clear,360,2013-02-20 19:55:00
2:35 PM,31.6,14.7,50,30.29,10.0,NNE,5.8,-,N/A,,Mostly Cloudy,30,2013-02-20 20:35:00
2:55 PM,32.0,15.6,51,30.28,10.0,NE,4.6,-,N/A,,Scattered Clouds,40,2013-02-20 20:55:00
3:15 PM,32.0,15.6,51,30.30,10.0,North,8.1,-,N/A,,Scattered Clouds,10,2013-02-20 21:15:00
3:35 PM,32.0,15.4,51,30.29,10.0,North,6.9,-,N/A,,Overcast,10,2013-02-20 21:35:00
3:55 PM,32.0,16.0,52,30.27,10.0,ENE,8.1,-,N/A,,Mostly Cloudy,60,2013-02-20 21:55:00
4:15 PM,32.4,16.2,51,30.27,10.0,NNE,5.8,-,N/A,,Scattered Clouds,20,2013-02-20 22:15:00
4:35 PM,32.2,15.1,49,30.26,10.0,NNE,5.8,-,N/A,,Scattered Clouds,20,2013-02-20 22:35:00
4:55 PM,30.9,15.1,52,30.27,10.0,ENE,5.8,-,N/A,,Clear,60,2013-02-20 22:55:00
5:15 PM,30.7,15.8,54,30.28,10.0,NE,4.6,-,N/A,,Clear,50,2013-02-20 23:15:00
5:55 PM,29.3,16.2,58,30.28,10.0,ENE,3.5,-,N/A,,Clear,60,2013-02-20 23:55:00
6:15 PM,29.1,15.8,58,30.29,10.0,NE,3.5,-,N/A,,Clear,40,2013-02-21 00:15:00
6:35 PM,28.4,16.2,60,30.29,10.0,NE,3.5,-,N/A,,Clear,50,2013-02-21 00:35:00
6:55 PM,28.2,15.8,60,30.30,10.0,NE,3.5,-,N/A,,Scattered Clouds,40,2013-02-21 00:55:00
7:15 PM,27.7,17.2,65,30.29,10.0,NNE,4.6,-,N/A,,Mostly Cloudy,30,2013-02-21 01:15:00
7:35 PM,27.9,16.7,63,30.28,10.0,NE,5.8,-,N/A,,Scattered Clouds,40,2013-02-21 01:35:00
7:55 PM,27.5,17.2,65,30.28,10.0,NE,3.5,-,N/A,,Clear,40,2013-02-21 01:55:00
8:15 PM,26.8,17.4,68,30.29,10.0,Calm,Calm,-,N/A,,Clear,0,2013-02-21 02:15:00
8:35 PM,27.3,18.3,69,30.30,10.0,NNE,3.5,-,N/A,,Clear,30,2013-02-21 02:35:00
8:55 PM,27.1,18.3,69,30.30,10.0,NNE,3.5,-,N/A,,Clear,30,2013-02-21 02:55:00
9:15 PM,27.1,18.3,69,30.29,10.0,NE,4.6,-,N/A,,Clear,40,2013-02-21 03:15:00
9:35 PM,27.1,18.5,70,30.29,10.0,NE,5.8,-,N/A,,Clear,40,2013-02-21 03:35:00
9:55 PM,26.6,18.3,71,30.29,10.0,NNE,6.9,-,N/A,,Clear,30,2013-02-21 03:55:00
10:15 PM,26.4,18.5,72,30.28,10.0,NNE,5.8,-,N/A,,Clear,30,2013-02-21 04:15:00
10:35 PM,26.4,19.0,74,30.28,10.0,NNE,4.6,-,N/A,,Clear,30,2013-02-21 04:35:00
10:55 PM,26.1,18.9,74,30.28,10.0,NNE,4.6,-,N/A,,Clear,30,2013-02-21 04:55:00
11:15 PM,26.2,19.0,74,30.28,10.0,NNE,6.9,-,N/A,,Clear,30,2013-02-21 05:15:00
11:35 PM,26.4,19.2,74,30.29,10.0,NNE,5.8,-,N/A,,Clear,30,2013-02-21 05:35:00
11:55 PM,26.4,19.0,74,30.28,10.0,NE,4.6,-,N/A,,Clear,50,2013-02-21 05:55:00